Weather History for Volk, WI

Change the Weather History Date:

Sunday, April 27, 2014

  Actual Average Record
Temperature  
Mean Temperature 41 °F -  
Max Temperature 46 °F 60 °F 73 °F (2003)
Min Temperature 37 °F 41 °F 23 °F (2012)
Degree Days  
Heating Degree Days 24    
Moisture  
Dew Point 38 °F    
Average Humidity 90    
Maximum Humidity 100    
Minimum Humidity 61    
Precipitation  
Precipitation 0.15 in - - ()
Sea Level Pressure  
Sea Level Pressure 29.95 in    
Wind  
Wind Speed 16 mph (East)    
Max Wind Speed 30 mph    
Max Gust Speed 38 mph    
Visibility 10 miles    
Events Rain , Thunderstorm    
Averages and records for this station are not official NWS values.
T = Trace of Precipitation, MM = Missing Value Source: NWS Daily Summary

Daily Weather History Graph

Daily Weather History Graph

Search for Another Location

Airport:

Trip Planner

Search our weather history database for the weather conditions in past years. The results will help you decide how hot, cold, wet, or windy it might be!

Date:

Astronomy

Apr. 27, 2014 Rise Set
Actual Time 5:58 AM CDT 7:59 PM CDT
Civil Twilight 5:27 AM CDT 8:30 PM CDT
Nautical Twilight 4:49 AM CDT 9:09 PM CDT
Astronomical Twilight 4:07 AM CDT 9:51 PM CDT
Moon 5:03 AM CDT (4/27) 6:30 PM CDT (4/27)
Length of Visible Light 15h 03m
Length of Day
14h 00m
Waning Crescent, 3% of the Moon is Illuminated
Apr 27
Waning Crescent
Apr 29
New
May 6
First Quarter
May 14
Full
May 21
Last Quarter

Hourly Weather History & Observations

Time (CDT) Temp. Windchill Dew Point Humidity Pressure Visibility Wind Dir Wind Speed Gust Speed Precip Events Conditions
12:28 AM 39.2 °F 32.5 °F 37.4 °F 93% 30.03 in 9.0 mi ENE 10.4 mph 24.2 mph N/A Rain Light Rain
12:33 AM 39.2 °F 33.0 °F 37.4 °F 93% 30.04 in 10.0 mi ENE 9.2 mph - N/A Rain Light Rain
12:38 AM 39.2 °F 31.2 °F 37.4 °F 93% 30.03 in 10.0 mi ENE 13.8 mph 21.9 mph N/A   Mostly Cloudy
12:51 AM 39.2 °F 30.8 °F 37.4 °F 93% 30.05 in 10.0 mi East 15.0 mph 21.9 mph N/A   Light Drizzle
12:58 AM 38.5 °F 29.6 °F 36.5 °F 93% 30.09 in 10.0 mi East 16.1 mph 27.6 mph 0.02 in   Light Drizzle
12:59 AM 39.2 °F 32.0 °F 35.6 °F 87% 30.06 in 10.0 mi East 11.5 mph 27.6 mph N/A   Mostly Cloudy
1:22 AM 37.4 °F 28.2 °F 35.6 °F 93% 30.06 in 10.0 mi East 16.1 mph - N/A Rain Light Rain
1:48 AM 37.4 °F 28.2 °F 35.6 °F 93% 30.04 in 10.0 mi East 16.1 mph 25.3 mph N/A   Mostly Cloudy
1:58 AM 37.6 °F 29.1 °F 35.8 °F 93% 30.07 in 10.0 mi East 13.8 mph - 0.01 in   Mostly Cloudy
2:24 AM 37.4 °F 28.9 °F 35.6 °F 93% 30.04 in 10.0 mi East 13.8 mph - N/A Rain Light Rain
2:33 AM 37.4 °F 28.2 °F 35.6 °F 93% 30.04 in 10.0 mi East 16.1 mph - N/A   Mostly Cloudy
2:58 AM 37.6 °F 28.4 °F 35.1 °F 91% 30.06 in 10.0 mi East 16.1 mph - 0.00 in   Mostly Cloudy
3:58 AM 37.6 °F 29.1 °F 34.5 °F 89% 30.04 in 10.0 mi ESE 13.8 mph - N/A   Overcast
4:58 AM 37.6 °F 28.1 °F 34.9 °F 90% 30.02 in 10.0 mi East 17.3 mph - N/A   Overcast
5:58 AM 38.1 °F 30.2 °F 35.8 °F 91% 30.02 in 10.0 mi East 12.7 mph - N/A   Overcast
6:48 AM 39.2 °F 31.2 °F 35.6 °F 87% 29.99 in 10.0 mi East 13.8 mph 20.7 mph N/A   Overcast
6:58 AM 38.7 °F 30.1 °F 36.3 °F 91% 30.02 in 10.0 mi East 15.0 mph - N/A   Overcast
7:23 AM 39.2 °F 29.6 °F 37.4 °F 93% 29.97 in 10.0 mi East 19.6 mph - N/A   Mostly Cloudy
7:58 AM 39.0 °F 29.0 °F 37.8 °F 95% 29.99 in 10.0 mi East 20.7 mph 25.3 mph N/A   Scattered Clouds
8:23 AM 39.2 °F 29.8 °F 37.4 °F 93% 29.95 in 10.0 mi East 18.4 mph 26.5 mph N/A   Mostly Cloudy
8:43 AM 39.2 °F 29.8 °F 37.4 °F 93% 29.95 in 10.0 mi East 18.4 mph 25.3 mph N/A   Overcast
8:58 AM 39.2 °F 28.7 °F 39.2 °F 100% 29.97 in 10.0 mi East 23.0 mph 31.1 mph N/A Rain Light Rain
9:33 AM 39.2 °F 29.6 °F 39.2 °F 100% 29.93 in 10.0 mi ESE 19.6 mph 33.4 mph N/A   Overcast
9:58 AM 39.2 °F 28.7 °F 39.2 °F 100% 29.95 in 10.0 mi East 23.0 mph - N/A   Overcast
10:47 AM 41.0 °F 31.1 °F 39.2 °F 93% 29.93 in 10.0 mi ESE 23.0 mph 32.2 mph N/A   Overcast
10:58 AM 41.0 °F 32.8 °F 39.2 °F 93% 29.98 in 10.0 mi ESE 16.1 mph 29.9 mph N/A Rain Light Rain
11:04 AM 41.0 °F 32.5 °F 39.2 °F 93% 29.97 in 10.0 mi ESE 17.3 mph 23.0 mph N/A   Overcast
11:31 AM 41.0 °F 31.9 °F 39.2 °F 93% 29.95 in 10.0 mi East 19.6 mph 29.9 mph N/A Rain Light Rain Showers
11:35 AM 41.0 °F 30.5 °F 37.4 °F 87% 29.94 in 6.0 mi East 26.5 mph 29.9 mph N/A Rain Light Rain Showers
11:58 AM 39.2 °F 28.7 °F 39.2 °F 100% 29.97 in 7.0 mi East 23.0 mph 29.9 mph N/A Rain Light Rain Showers
12:47 PM 39.2 °F 29.6 °F 39.2 °F 100% 29.95 in 5.0 mi East 19.6 mph 26.5 mph N/A Rain Light Rain Showers
12:58 PM 39.2 °F 28.7 °F 39.2 °F 100% 29.96 in 7.0 mi East 23.0 mph 26.5 mph N/A Rain Light Rain Showers
1:09 PM 39.2 °F 31.2 °F 39.2 °F 100% 29.96 in 10.0 mi East 13.8 mph 21.9 mph N/A   Overcast
1:58 PM 41.0 °F 31.4 °F 39.2 °F 93% 29.94 in 10.0 mi East 21.9 mph - N/A   Overcast
2:06 PM 41.0 °F 31.4 °F 39.2 °F 93% 29.91 in 10.0 mi East 21.9 mph 31.1 mph N/A Rain Light Rain Showers
2:15 PM 41.0 °F 31.9 °F 39.2 °F 93% 29.90 in 10.0 mi East 19.6 mph 28.8 mph N/A   Overcast
2:29 PM 41.0 °F 31.9 °F 39.2 °F 93% 29.90 in 10.0 mi East 19.6 mph 28.8 mph N/A Rain Light Rain Showers
2:39 PM 41.0 °F 30.2 °F 41.0 °F 100% 29.89 in 10.0 mi East 27.6 mph 35.7 mph N/A   Overcast
2:58 PM 42.8 °F 32.9 °F 39.2 °F 87% 29.91 in 10.0 mi East 26.5 mph - N/A   Overcast
3:58 PM 43.5 °F 34.7 °F 38.1 °F 81% 29.88 in 10.0 mi East 21.9 mph 33.4 mph N/A   Mostly Cloudy
4:58 PM 45.9 °F 36.4 °F 35.2 °F 66% 29.83 in 10.0 mi East 29.9 mph 38.0 mph N/A   Scattered Clouds
5:34 PM 44.6 °F 37.2 °F 32.0 °F 61% 29.86 in 10.0 mi SE 17.3 mph 35.7 mph N/A   Overcast
5:49 PM 44.6 °F 37.8 °F 32.0 °F 61% 29.89 in 10.0 mi East 15.0 mph 24.2 mph N/A Thunderstorm Thunderstorm
5:50 PM 44.6 °F 36.6 °F 32.0 °F 61% 29.88 in 10.0 mi East 19.6 mph 25.3 mph N/A Rain , Thunderstorm Light Thunderstorms and Rain
5:58 PM 45.0 °F 36.4 °F 34.0 °F 65% 29.90 in 10.0 mi East 23.0 mph - 0.00 in Rain , Thunderstorm Light Thunderstorms and Rain
6:21 PM 42.8 °F 33.5 °F 37.4 °F 81% 29.87 in 9.0 mi East 23.0 mph 29.9 mph N/A Rain , Thunderstorm Light Rain
6:27 PM 42.8 °F 34.5 °F 37.4 °F 81% 29.88 in 10.0 mi East 18.4 mph 32.2 mph N/A Thunderstorm Overcast
6:30 PM 42.8 °F 34.8 °F 37.4 °F 81% 29.89 in 10.0 mi East 17.3 mph 32.2 mph N/A Rain Light Rain
6:58 PM 41.9 °F 34.6 °F 39.0 °F 90% 29.95 in 10.0 mi ESE 13.8 mph - 0.05 in Rain Light Rain
6:59 PM 42.8 °F 35.4 °F 39.2 °F 87% 29.92 in 10.0 mi ESE 15.0 mph - N/A   Overcast
7:00 PM 42.8 °F 35.4 °F 39.2 °F 87% 29.92 in 10.0 mi East 15.0 mph - N/A Rain Light Rain
7:58 PM 41.4 °F 34.0 °F 41.2 °F 99% 29.97 in 10.0 mi East 13.8 mph - 0.04 in Rain Light Rain
8:03 PM 41.0 °F 32.8 °F 41.0 °F 100% 29.93 in 10.0 mi East 16.1 mph - N/A   Mostly Cloudy
8:10 PM 41.0 °F 32.8 °F 41.0 °F 100% 29.93 in 10.0 mi East 16.1 mph - N/A Rain Light Rain
8:58 PM 41.9 °F 32.8 °F 41.5 °F 99% 29.92 in 10.0 mi East 20.7 mph 26.5 mph 0.02 in Rain Light Rain
9:08 PM 41.0 °F 32.8 °F 41.0 °F 100% 29.90 in 10.0 mi ESE 16.1 mph 26.5 mph N/A   Mostly Cloudy
9:58 PM 42.4 °F 34.1 °F 41.7 °F 97% 29.90 in 10.0 mi East 18.4 mph 24.2 mph 0.00 in   Scattered Clouds
10:26 PM 42.8 °F 33.8 °F 39.2 °F 87% 29.85 in 10.0 mi East 21.9 mph - N/A   Mostly Cloudy
10:58 PM 41.7 °F 31.6 °F 40.3 °F 95% 29.81 in 10.0 mi East 25.3 mph 34.5 mph 0.01 in Rain Light Rain
11:02 PM 41.0 °F 30.7 °F 39.2 °F 93% 29.78 in 10.0 mi East 25.3 mph 34.5 mph N/A   Partly Cloudy
11:58 PM 42.1 °F 33.6 °F 39.7 °F 91% 29.85 in 10.0 mi East 18.4 mph - 0.00 in   Overcast